Regional Weather Roundup
Issued by NWS

Home | Current Version | Previous Version | Text Only | Print | Product List | Glossary On
Versions: 1 2 3 4 5 6 7 8 9 10 11 12 13 14 15 16 17 18 19 20 21 22 23 24 25 26 27
000
ASUS45 KCYS 221310
RWRWY

WYOMING REGIONAL WEATHER ROUNDUP
NATIONAL WEATHER SERVICE CHEYENNE WY
700 AM MDT TUE AUG 22 2017

NOTE:  "FAIR" INDICATES FEW OR NO CLOUDS BELOW 12,000 FEET
WITH NO SIGNIFICANT WEATHER AND/OR OBSTRUCTIONS TO VISIBILITY.

WYZ001-221400-
YELLOWSTONE NATIONAL PARK

CITY           SKY/WX    TMP DP  RH WIND       PRES   REMARKS
LK YELLOWSTONE   N/A     35  34  96 NW3       30.45R
W YELLOWSTONE  NOT AVBL

$$
WYZ002>013-054>058-071-098>099-221400-
NORTHERN WYOMING

CITY           SKY/WX    TMP DP  RH WIND       PRES   REMARKS
JACKSON        FAIR      36  28  73 N5        30.40R WCI  32
CODY           FAIR      53  36  52 S7        30.28R
GREYBULL       FAIR      50  35  56 SW3       30.22R
WORLAND        FAIR      45  33  63 CALM      30.23R
SHERIDAN       FAIR      45  38  76 S3        30.21R
BUFFALO        FAIR      59  31  34 CALM      30.26R
GILLETTE       FAIR      57  37  47 S13       30.23S
HULETT         FAIR      52  37  58 CALM      30.26R
NEWCASTLE      FAIR      55  36  47 E13       30.29S

$$
WYZ014>020-022>026-101>103-221400-
CENTRAL WYOMING

CITY           SKY/WX    TMP DP  RH WIND       PRES   REMARKS
BIG PINEY      FAIR      34  24  67 E6        30.41R WCI  29
PINEDALE       FAIR      32  28  86 W6        30.42R WCI  26
DUBOIS         FAIR      43  30  61 NW10      30.41R
LANDER           N/A    N/A N/A N/A MISG      30.32R
RIVERTON       FAIR      51  40  65 NW9       30.29R
CASPER         FAIR      47  37  68 CALM      30.30R
DOUGLAS        FAIR      55  43  63 SE14      30.28R

$$
WYZ021-027>030-104>119-221400-
SOUTHERN WYOMING

CITY           SKY/WX    TMP DP  RH WIND       PRES   REMARKS
EVANSTON       FAIR      52  36  54 E5        30.38R
KEMMERER         N/A     45  30  57 N15       30.40S
FORT BRIDGER   FAIR      56  32  40 W7        30.40R
ROCK SPRINGS   FAIR      56  34  43 CALM      30.36R
RAWLINS        NOT AVBL
SARATOGA       FAIR      45  36  70 CALM      30.38R
LARAMIE        FAIR      51  46  83 S15       30.37S
CHEYENNE       CLOUDY    58  52  80 S10       30.35S
TORRINGTON     MOCLDY    52  45  77 E8        30.28S
PINE BLUFFS    PTSUNNY   55  54  94 SE7       30.33F

$$




USA.gov is the U.S. government's official web portal to all federal, state and local government web resources and services.